Weather reports worldwide

Advertisment
Madridejos, Spain (8273): temperature & dewpoint: 10.07.2018 18:00:00 - 16.07.2018 18:00:00 (CEST)Madridejos, Spain (8273): wind speed & gusts: 10.07.2018 18:00:00 - 16.07.2018 18:00:00 (CEST)Madridejos, Spain (8273): wind direction: 10.07.2018 18:00:00 - 16.07.2018 18:00:00 (CEST)Madridejos, Spain (8273): reduced air pressure: 10.07.2018 18:00:00 - 16.07.2018 18:00:00 (CEST)Madridejos, Spain (8273): visibility: 10.07.2018 18:00:00 - 16.07.2018 18:00:00 (CEST)Madridejos, Spain (8273): sunshine duration: 10.07.2018 18:00:00 - 16.07.2018 18:00:00 (CEST)Madridejos, Spain (8273): precipitation: 10.07.2018 18:00:00 - 16.07.2018 18:00:00 (CEST)
Date & Time tt [°C] td [°C] ff [km/h] ff [kn] fx [km/h] fx [kn] dd ppp [hPa] vv [km] sd [min] rr [mm]
16.07.2018 18:00:00 - - - - - - - - - - -
16.07.2018 17:00:00 29,0 3,8 10 5 36 19 NNW 1014,0 20 60 0,0
16.07.2018 16:00:00 28,6 4,1 8 5 37 20 NNW 1014,1 20 60 0,0
16.07.2018 15:00:00 28,2 4,5 17 9 40 21 WNW 1014,8 20 60 0,0
16.07.2018 14:00:00 27,5 5,1 10 5 37 20 W 1015,3 20 60 -
16.07.2018 13:00:00 26,1 5,6 6 4 33 18 NW 1015,9 20 59 0,0
16.07.2018 12:00:00 24,7 6,8 11 6 32 17 W 1016,2 20 60 0,0
16.07.2018 11:00:00 23,0 8,7 11 6 29 16 WNW 1016,4 20 60 0,0
16.07.2018 10:00:00 21,0 8,9 13 7 27 15 W 1016,9 20 60 0,0
16.07.2018 09:00:00 18,5 8,8 15 8 27 15 W 1017,4 20 60 0,0
16.07.2018 08:00:00 15,5 7,7 8 4 18 10 WSW 1017,9 20 37 -
16.07.2018 07:00:00 15,4 7,7 11 6 19 10 WSW 1017,5 20 0 0,0
16.07.2018 06:00:00 15,7 6,4 8 5 21 12 WSW 1017,0 20 0 0,0
16.07.2018 05:00:00 16,4 5,9 14 8 27 14 W 1016,9 20 0 0,0
16.07.2018 04:00:00 16,8 6,1 14 7 25 13 W 1017,0 20 0 0,0
16.07.2018 03:00:00 17,4 6,2 10 5 22 12 WSW 1017,0 20 0 0,0
16.07.2018 02:00:00 18,7 5,5 11 6 25 13 WSW 1016,6 20 0 -
16.07.2018 01:00:00 20,0 5,3 13 7 33 18 WSW 1016,1 20 0 0,0
16.07.2018 00:00:00 21,1 5,5 20 11 38 21 W 1015,3 20 0 0,0
15.07.2018 23:00:00 22,3 6,1 29 16 46 25 W 1014,6 20 0 0,0
15.07.2018 22:00:00 23,4 1,7 22 12 39 21 W 1013,5 20 17 0,0
15.07.2018 21:00:00 25,5 5,6 24 13 43 23 W 1012,3 20 53 0,0
15.07.2018 20:00:00 27,6 5,8 21 11 43 23 W 1011,4 20 58 -
15.07.2018 19:00:00 28,5 4,6 23 12 45 24 SW 1011,4 20 58 0,0
15.07.2018 18:00:00 29,0 4,5 15 8 33 18 SW 1011,4 20 58 0,0
15.07.2018 17:00:00 29,3 3,2 17 9 36 20 W 1011,6 20 60 0,0
15.07.2018 16:00:00 29,1 1,5 19 11 37 20 SW 1012,1 20 60 0,0
15.07.2018 15:00:00 29,0 0,6 12 6 37 20 SW 1012,2 20 60 0,0
15.07.2018 14:00:00 27,5 1,9 14 8 31 17 SSW 1013,3 20 60 -
15.07.2018 13:00:00 26,2 2,1 13 7 30 16 SSW 1014,1 20 60 0,0
15.07.2018 12:00:00 25,3 2,1 13 7 29 16 WSW 1014,7 20 60 0,0
15.07.2018 11:00:00 23,1 5,0 6 4 26 14 SW 1015,6 20 60 0,0
15.07.2018 10:00:00 21,4 7,6 10 6 26 14 WNW 1016,2 20 60 0,0
15.07.2018 09:00:00 19,4 7,1 10 5 22 12 WSW 1016,7 20 60 0,0
15.07.2018 08:00:00 16,3 5,8 9 5 21 12 W 1017,1 20 38 -
15.07.2018 07:00:00 16,0 5,0 7 4 23 12 WSW 1016,9 20 0 0,0
15.07.2018 06:00:00 19,2 4,1 11 6 24 13 SSW 1015,9 20 0 0,0
15.07.2018 05:00:00 18,5 4,3 12 6 22 12 SW 1016,0 20 0 0,0
15.07.2018 04:00:00 19,2 3,4 11 6 20 11 WSW 1015,8 20 0 0,0
15.07.2018 03:00:00 20,8 2,7 13 7 29 16 W 1015,7 20 0 0,0
15.07.2018 02:00:00 21,6 1,7 14 7 23 12 W 1016,0 20 0 -
15.07.2018 01:00:00 23,4 1,7 13 7 22 12 WSW 1015,4 20 0 0,0
15.07.2018 00:00:00 22,1 0,6 10 5 18 10 WSW 1015,4 20 0 0,0
14.07.2018 23:00:00 24,0 0,4 9 5 16 9 WSW 1014,4 20 0 0,0
14.07.2018 22:00:00 27,3 0,2 11 6 29 16 WSW 1012,6 20 21 0,0
14.07.2018 21:00:00 30,1 -0,3 21 11 33 18 SW 1011,3 20 53 0,0
14.07.2018 20:00:00 31,2 0,4 21 11 38 20 SW 1011,1 20 60 -
14.07.2018 19:00:00 32,0 -1,0 25 14 57 31 SW 1011,2 20 60 0,0
14.07.2018 18:00:00 32,5 0,4 18 10 41 22 SSW 1011,4 20 60 0,0
14.07.2018 17:00:00 32,1 1,3 25 13 46 25 WSW 1011,8 20 60 0,0
14.07.2018 16:00:00 32,1 0,2 21 11 40 22 SW 1012,2 20 60 0,0
14.07.2018 15:00:00 30,7 3,6 11 6 36 20 S 1012,8 20 60 0,0
14.07.2018 14:00:00 30,2 3,2 19 10 36 19 S 1013,7 20 60 -
14.07.2018 13:00:00 29,3 1,7 11 6 29 16 W 1014,0 19 60 0,0
14.07.2018 12:00:00 27,3 4,3 9 5 29 16 SSW 1014,6 20 60 0,0
14.07.2018 11:00:00 25,9 7,0 10 5 29 16 SW 1015,2 20 60 0,0
14.07.2018 10:00:00 23,7 8,9 7 4 23 13 SSW 1015,7 20 60 0,0
14.07.2018 09:00:00 20,5 5,3 6 4 21 11 W 1016,4 20 60 0,0
14.07.2018 08:00:00 17,9 4,1 6 4 24 13 NNE 1016,7 20 32 -
14.07.2018 07:00:00 18,5 3,9 7 4 23 13 SSW 1015,7 20 0 0,0
14.07.2018 06:00:00 18,2 2,9 11 6 24 13 WSW 1015,7 20 0 0,0
14.07.2018 05:00:00 18,9 2,7 8 4 10 6 WSW 1015,7 20 0 0,0
14.07.2018 04:00:00 21,2 1,9 8 4 26 14 S 1015,2 20 0 0,0
14.07.2018 03:00:00 20,8 1,7 6 4 23 12 SSE 1015,3 20 0 0,0
14.07.2018 02:00:00 21,4 1,1 8 4 26 14 WNW 1015,0 20 0 -
14.07.2018 01:00:00 23,7 0,6 16 9 31 17 SW 1013,8 20 0 0,0
14.07.2018 00:00:00 24,6 1,5 12 7 23 12 WSW 1013,4 20 0 0,0
13.07.2018 23:00:00 26,8 1,9 13 7 26 14 WSW 1012,0 20 0 0,0
13.07.2018 22:00:00 29,0 4,5 11 6 22 12 SW 1010,5 20 6 0,0
13.07.2018 21:00:00 31,6 1,9 14 8 37 20 SSW 1009,4 20 53 0,0
13.07.2018 20:00:00 32,4 5,8 13 7 23 13 SSW 1008,9 20 40 -
13.07.2018 19:00:00 33,0 5,5 14 8 28 15 SW 1008,9 20 57 0,0
13.07.2018 18:00:00 33,0 6,2 13 7 36 19 SSE 1009,2 20 51 0,0
13.07.2018 17:00:00 32,8 6,8 11 6 32 17 SSW 1009,6 20 59 0,0
13.07.2018 16:00:00 31,9 8,3 11 6 30 16 ESE 1010,1 20 59 0,0
13.07.2018 15:00:00 31,2 8,3 9 5 28 15 SSE 1010,7 20 60 0,0
13.07.2018 14:00:00 30,2 9,7 10 6 26 14 SSE 1011,3 20 60 -
13.07.2018 13:00:00 28,9 10,0 11 6 28 15 SSE 1012,0 20 60 0,0
13.07.2018 12:00:00 26,8 10,9 11 6 34 18 SE 1012,7 20 60 0,0
13.07.2018 11:00:00 25,2 11,3 11 6 29 16 SSE 1013,0 20 60 0,0
13.07.2018 10:00:00 23,2 12,5 14 7 29 16 SE 1013,3 20 60 0,0
13.07.2018 09:00:00 21,3 13,0 16 9 27 15 ESE 1013,6 20 60 0,0
13.07.2018 08:00:00 18,7 9,4 10 6 25 13 ESE 1013,9 19 19 -
13.07.2018 07:00:00 17,5 7,8 14 7 26 14 ESE 1014,2 20 0 0,0
13.07.2018 06:00:00 18,2 9,0 10 5 24 13 SE 1013,4 20 0 0,0
13.07.2018 05:00:00 20,1 14,2 7 4 24 13 SE 1012,4 20 0 0,0
13.07.2018 04:00:00 21,0 13,9 5 3 27 15 E 1012,1 20 0 0,0
13.07.2018 03:00:00 22,6 12,2 9 5 31 17 E 1011,9 20 0 0,0
13.07.2018 02:00:00 22,9 4,5 4 2 32 18 N 1012,3 20 0 -
13.07.2018 01:00:00 22,7 4,3 6 4 11 6 SSW 1012,0 20 0 0,0
13.07.2018 00:00:00 23,1 3,6 5 3 14 8 NNW 1011,4 20 0 0,0
12.07.2018 23:00:00 25,8 3,0 6 3 12 7 W 1010,2 17 0 0,0
12.07.2018 22:00:00 29,6 1,9 5 3 13 7 S 1008,9 20 11 0,0
12.07.2018 21:00:00 31,6 0,9 6 3 15 8 SW 1008,1 20 53 0,0
12.07.2018 20:00:00 32,4 1,5 9 5 21 11 SW 1007,8 20 60 -
12.07.2018 19:00:00 33,1 3,0 10 5 19 11 W 1007,6 20 57 0,0
12.07.2018 18:00:00 33,3 5,0 9 5 25 13 W 1007,8 20 60 0,0
12.07.2018 17:00:00 32,9 6,2 12 6 26 14 SW 1008,4 20 60 0,0
12.07.2018 16:00:00 32,1 7,7 6 3 21 11 WNW 1009,0 20 33 0,0
12.07.2018 15:00:00 31,3 7,7 8 4 23 12 SSW 1009,6 20 54 0,0
12.07.2018 14:00:00 30,4 9,8 8 4 26 14 NW 1010,2 20 44 -
12.07.2018 13:00:00 29,3 8,9 5 3 23 13 NE 1010,8 20 58 0,0
12.07.2018 12:00:00 28,0 10,2 10 5 26 14 W 1011,2 20 60 0,0
12.07.2018 11:00:00 26,3 12,3 4 2 12 7 NNW 1011,5 20 60 0,0
12.07.2018 10:00:00 24,1 12,4 6 3 13 7 NW 1012,1 20 60 0,0
12.07.2018 09:00:00 21,8 13,2 3 2 18 10 W 1012,2 18 60 0,0
12.07.2018 08:00:00 19,0 11,8 6 4 - - NNW 1012,7 13 36 -
12.07.2018 07:00:00 18,0 11,6 10 5 19 11 SW 1012,7 20 0 0,0
12.07.2018 06:00:00 19,0 11,1 4 2 9 5 S 1012,3 20 0 0,0
12.07.2018 05:00:00 19,2 11,2 6 3 - - SW 1012,0 20 0 0,0
12.07.2018 04:00:00 19,5 9,4 - - - - - 1012,1 20 0 0,0
12.07.2018 03:00:00 20,1 8,4 9 5 - - SW 1012,0 20 0 0,0
12.07.2018 02:00:00 20,6 6,8 - - - - - 1012,1 20 0 -
12.07.2018 01:00:00 21,6 5,5 12 7 31 17 W 1011,8 20 0 0,0
12.07.2018 00:00:00 22,6 3,6 9 5 - - W 1011,4 20 0 0,0
11.07.2018 23:00:00 23,9 1,5 6 4 - - WSW 1010,8 20 0 0,0
11.07.2018 22:00:00 26,3 2,3 - - - - - 1009,2 20 13 0,0
11.07.2018 21:00:00 29,7 0,2 17 9 - - WSW 1008,0 20 55 0,0
11.07.2018 20:00:00 31,3 4,1 - - - - - 1007,1 20 60 -
11.07.2018 19:00:00 32,0 7,0 21 12 - - WSW 1006,7 20 47 0,0
11.07.2018 18:00:00 32,7 6,1 - - - - - 1006,7 20 52 0,0
11.07.2018 17:00:00 32,9 5,5 22 12 - - SW 1007,0 20 56 0,0
11.07.2018 16:00:00 32,8 7,6 18 10 46 25 W 1007,5 20 58 0,0
11.07.2018 15:00:00 32,1 9,0 16 9 36 19 WSW 1008,3 20 60 0,0
11.07.2018 14:00:00 31,5 6,5 15 8 33 18 SSW 1009,1 20 60 -
11.07.2018 13:00:00 30,5 8,3 16 8 32 17 WSW 1009,9 20 60 0,0
11.07.2018 12:00:00 28,6 8,8 14 7 32 17 SW 1010,8 20 60 0,0
11.07.2018 11:00:00 27,7 10,4 15 8 26 14 WSW 1011,2 20 60 0,0
11.07.2018 10:00:00 25,8 11,2 5 3 14 7 SSW 1011,7 20 50 0,0
11.07.2018 09:00:00 23,2 11,6 3 1 24 13 S 1012,3 20 46 0,0
11.07.2018 08:00:00 20,6 10,6 2 1 22 12 S 1013,4 20 18 -
11.07.2018 07:00:00 20,1 9,0 1 1 - - WSW 1013,5 20 - -
11.07.2018 06:00:00 20,5 6,8 10 5 23 12 SW 1013,2 20 0 0,0
11.07.2018 05:00:00 21,0 8,3 11 6 34 18 W 1013,0 20 0 0,0
11.07.2018 04:00:00 23,1 7,6 19 10 42 23 W 1012,5 20 0 0,0
11.07.2018 03:00:00 23,5 3,9 14 8 34 19 W 1012,6 20 0 0,0
11.07.2018 02:00:00 24,4 4,1 13 7 31 17 W 1012,6 20 0 -
11.07.2018 01:00:00 23,9 4,8 9 5 16 9 WNW 1012,8 20 0 0,0
11.07.2018 00:00:00 25,5 3,9 11 6 16 9 W 1012,5 20 0 0,0
10.07.2018 23:00:00 27,1 0,6 13 7 19 10 W 1011,9 20 0 0,0
10.07.2018 22:00:00 29,8 1,3 14 8 32 17 W 1010,7 20 18 0,0
10.07.2018 21:00:00 32,7 1,7 13 7 36 19 WSW 1009,7 20 55 0,0
10.07.2018 20:00:00 33,9 1,7 13 7 37 20 WSW 1009,3 20 60 -
10.07.2018 19:00:00 34,7 2,3 23 12 44 24 W 1009,2 20 60 0,0
10.07.2018 18:00:00 - - - - - - - - - - -

tt = temperature
td = dewpoint
ff = wind speed
fx = gusts
dd = wind direction
ppp = reduced air pressure
vv = visibility
sd = sunshine duration
rr = precipitation

Next stations